Regional Weather Roundup
Issued by NWS

Home | Current Version | Previous Version | Text Only | Print | Product List | Glossary Off
Versions: 1 2 3 4 5 6 7 8 9 10 11 12 13 14 15 16 17 18 19 20 21 22 23 24 25 26 27 28 29 30 31 32 33 34 35 36 37 38 39 40 41 42 43 44 45 46 47 48 49 50

000
ASUS44 KMEG 290810
RWRTN
TENNESSEE HOURLY STATE WEATHER ROUNDUP
NATIONAL WEATHER SERVICE MEMPHIS TN
200 AM CST MON DEC 29 2014

TNZ002-004-019-021-049-052-054-088>092-290900-
WEST TENNESSEE

CITY           SKY/WX    TMP DP  RH WIND       PRES   REMARKS
MEMPHIS INTL   CLOUDY    39  35  86 N6        30.16S WCI  35
NWS MEMPHIS      N/A     37 N/A N/A MISG        N/A
JACKSON        CLOUDY    37  34  89 NE8       30.17R WCI  31
DYERSBURG      CLOUDY    36  21  55 NE10      30.21R WCI  28
UNION CITY     CLOUDY    32  30  93 N8        30.19R WCI  25
PARIS          CLOUDY    32  28  86 NE8       30.18R WCI  25
HUNTINGDON     CLOUDY    33  30  89 NE6       30.18R WCI  27
LEXINGTON      CLOUDY    36  34  93 N6        30.15R WCI  31
SAVANNAH       CLOUDY    37  37 100 N5        30.14S WCI  34
$$

TNZ008-025-027-028-033-062-065-066-290900-
NORTH MIDDLE TENNESSEE

CITY           SKY/WX    TMP DP  RH WIND       PRES   REMARKS
NASHVILLE      CLOUDY    37  36  96 N6        30.16F FOG     WCI  32
CLARKSVILLE    CLOUDY    35  32  88 N8        30.18R WCI  29
SMYRNA         CLOUDY    38  37  96 N6        30.16F WCI  33
COOKEVILLE     CLOUDY    39  39 100 CALM      30.11S
CROSSVILLE     LGT RAIN  43  39  86 NE5       30.09S
$$

TNZ061-075-076-078-094-096-097-290900-
SOUTH MIDDLE TENNESSEE

CITY           SKY/WX    TMP DP  RH WIND       PRES   REMARKS
FAYETTEVILLE   CLOUDY    37  37 100 N7        30.10R WCI  32
TULLAHOMA      CLOUDY    37  37 100 NW6       30.11S WCI  33
WINCHESTER     CLOUDY    41  39  93 NW5       30.11R
MCMINNVILLE    CLOUDY    39  39 100 CALM      30.11S
COLUMBIA       CLOUDY   N/A N/A N/A N3        30.12R
SHELBYVILLE    CLOUDY    37  37 100 N8        30.13F WCI  31
$$

TNZ017-018-042-046-047-290900-
NORTHEAST TENNESSEE

CITY           SKY/WX    TMP DP  RH WIND       PRES   REMARKS
TRI CITIES     LGT RAIN  48  47  96 CALM      30.09R FOG
ELIZABETHTON   RAIN      45  45 100 CALM      30.08R FOG
$$

TNZ012-013-036-069-073-074-290900-
CENTRAL EAST TENNESSEE

CITY           SKY/WX    TMP DP  RH WIND       PRES   REMARKS
KNOXVILLE      LGT RAIN  47  46  97 CALM      30.09S
OAK RIDGE      LGT RAIN  46  45  96 CALM      30.12R
GATLINBURG     CLOUDY    46  46 100 CALM      30.08S
MORRISTOWN     PTSUNNY   48  48 100 CALM      30.10R
$$

TNZ083-085-099-290900-
SOUTHEAST TENNESSEE

CITY           SKY/WX    TMP DP  RH WIND       PRES   REMARKS
CHATTANOOGA    LGT RAIN  50  48  93 CALM      30.09F
$$

SKY/WX REPORTED AS FAIR MEANS FEW OR NO CLOUDS BELOW
12 THOUSAND FEET.



USA.gov is the U.S. government's official web portal to all federal, state and local government web resources and services.